Kodiak, AK

7:11 PM AKST on February 23, 2017 (GMT -0900)
Kodiak

Weather History for PADQ - July, 2012

Change the Weather History Date:

Monday, July 2, 2012

  Actual Average Record
Temperature  
Mean Temperature 49 °F 53 °F  
Max Temperature 56 °F 58 °F 82 °F (1989)
Min Temperature 42 °F 48 °F 38 °F (1973)
Degree Days  
Heating Degree Days 16 12  
Month to date heating degree days 30 25  
Since 1 June heating degree days 459 486  
Since 1 July heating degree days 30 25  
Cooling Degree Days 0    
Month to date cooling degree days 0  
Year to date cooling degree days 0  
Since 1 June cooling degree days 0  
Moisture  
Dew Point 43 °F    
Average Humidity 0    
Maximum Humidity 0    
Minimum Humidity 0    
Precipitation  
Precipitation 0.00 in 0.16 in 1.70 in (1998)
Month to date precipitation T 0.32  
Year to date precipitation 26.44 37.62  
Snow  
Snow 0.00 in 0.00 in 0.00 in (2016)
Month to date snowfall 0.0 0.0  
Since 1 June snowfall 0.0 0.0  
Since 1 July snowfall 0.0 0.0  
Snow Depth 0.00 in    
Sea Level Pressure  
Sea Level Pressure 29.88 in    
Wind  
Wind Speed 6 mph (West)    
Max Wind Speed 12 mph    
Max Gust Speed 14 mph    
Visibility 10 miles    
Events      
T = Trace of Precipitation, MM = Missing Value Source: NWS Daily Summary

Daily Weather History Graph

Daily Weather History Graph

Search for Another Location

Airport or City:

Trip Planner

Search our weather history database for the weather conditions in past years. The results will help you decide how hot, cold, wet, or windy it might be!

Date:

Astronomy

Jul. 02, 2012 Rise Set
Actual Time 5:15 AM AKDT 11:11 PM AKDT
Civil Twilight 4:05 AM AKDT 12:22 AM AKDT
Nautical Twilight 2:46 AM AKDT 1:41 AM AKDT
Astronomical Twilight Sun does not rise Sun does not rise
Moon 10:11 PM AKDT (7/2) 4:22 AM AKDT (7/2)
Length of Visible Light 20h 16m
Length of Day
17h 55m
Waxing Gibbous, 99% of the Moon is Illuminated
Jul 2
Waxing Gibbous
Jul 3
Full
Jul 10
Last Quarter
Jul 18
New
Jul 26
First Quarter

Hourly Weather History & Observations

Time (AKDT) Temp. Windchill Dew Point Humidity Pressure Visibility Wind Dir Wind Speed Gust Speed Precip Events Conditions
12:53 AM 46.0 °F 43.1 °F 42.1 °F 86% 29.92 in 10.0 mi West 5.8 mph - N/A   Scattered Clouds
1:53 AM 44.1 °F 40.8 °F 41.0 °F 89% 29.91 in 10.0 mi WSW 5.8 mph - N/A   Scattered Clouds
2:53 AM 43.0 °F 38.8 °F 41.0 °F 93% 29.92 in 10.0 mi West 6.9 mph - N/A   Scattered Clouds
3:53 AM 43.0 °F 38.8 °F 39.9 °F 89% 29.91 in 10.0 mi West 6.9 mph - N/A   Scattered Clouds
4:53 AM 45.0 °F 42.6 °F 42.1 °F 90% 29.91 in 10.0 mi WSW 4.6 mph - N/A   Mostly Cloudy
5:53 AM 46.9 °F - 43.0 °F 86% 29.91 in 10.0 mi South 3.5 mph - N/A   Mostly Cloudy
6:53 AM 46.0 °F 43.9 °F 42.1 °F 86% 29.90 in 10.0 mi West 4.6 mph - N/A   Mostly Cloudy
7:53 AM 50.0 °F - 43.0 °F 77% 29.90 in 10.0 mi South 3.5 mph - N/A   Mostly Cloudy
8:53 AM 52.0 °F - 45.0 °F 77% 29.90 in 10.0 mi South 3.5 mph - N/A   Mostly Cloudy
9:53 AM 54.0 °F - 46.0 °F 75% 29.89 in 10.0 mi East 6.9 mph - N/A   Mostly Cloudy
10:53 AM 54.0 °F - 46.9 °F 77% 29.89 in 10.0 mi East 6.9 mph - N/A   Mostly Cloudy
11:53 AM 54.0 °F - 46.9 °F 77% 29.88 in 10.0 mi East 9.2 mph - N/A   Mostly Cloudy
12:53 PM 54.0 °F - 48.0 °F 80% 29.88 in 10.0 mi ESE 10.4 mph - N/A   Mostly Cloudy
1:53 PM 55.0 °F - 46.0 °F 72% 29.87 in 10.0 mi ENE 9.2 mph - N/A   Mostly Cloudy
2:53 PM 55.0 °F - 43.0 °F 64% 29.88 in 10.0 mi West 10.4 mph - N/A   Mostly Cloudy
3:00 PM 55.4 °F - 42.8 °F 63% 29.87 in 10.0 mi WNW 10.4 mph - N/A   Mostly Cloudy
3:53 PM 54.0 °F - 42.1 °F 64% 29.87 in 10.0 mi NW 8.1 mph - N/A   Mostly Cloudy
4:53 PM 54.0 °F - 42.1 °F 64% 29.87 in 10.0 mi WNW 9.2 mph - N/A   Overcast
5:53 PM 53.1 °F - 42.1 °F 66% 29.85 in 10.0 mi NW 6.9 mph - N/A   Overcast
6:53 PM 53.1 °F - 42.1 °F 66% 29.85 in 10.0 mi NW 4.6 mph - N/A   Overcast
7:53 PM 53.1 °F - 42.1 °F 66% 29.84 in 10.0 mi NW 4.6 mph - N/A   Overcast
8:53 PM 52.0 °F - 43.0 °F 71% 29.84 in 10.0 mi North 5.8 mph - N/A   Overcast
9:53 PM 51.1 °F - 43.0 °F 74% 29.84 in 10.0 mi WNW 5.8 mph - N/A   Overcast
10:53 PM 50.0 °F - 44.1 °F 80% 29.84 in 10.0 mi West 4.6 mph - N/A   Overcast
11:53 PM 50.0 °F - 44.1 °F 80% 29.84 in 10.0 mi WNW 3.5 mph - N/A   Overcast